QPF
0.09 0.07 0.13 0.20 0.22 0.16 0.12 0.10 0.10 0.10 0.10 0.08 0.07 0.07 0.08 0.09 0.10 0.08 0.07 0.09 0.08 0.06 0.05 0.04 0.04 0.04 0.04 0.04 0.04 0.04 0.04 0.04 0.04 0.03 0.05 0.05 0.07 0.07 0.08 0.07 0.07 0.07 0.06
0.14 0.10 0.14 0.17 0.15 0.11 0.07 0.08 0.11 0.15 0.11 0.07 0.09 0.12 0.11 0.10 0.10 0.10 0.09 0.10 0.10 0.06 0.05 0.05 0.05 0.05 0.04 0.05 0.04 0.04 0.04 0.04 0.04 0.05 0.06 0.08 0.09 0.09 0.07 0.06 0.05 0.05 0.04
0.16 0.17 0.23 0.23 0.21 0.13 0.09 0.08 0.08 0.11 0.17 0.17 0.15 0.14 0.16 0.15 0.12 0.10 0.11 0.11 0.09 0.07 0.06 0.06 0.07 0.07 0.04 0.04 0.05 0.05 0.04 0.04 0.04 0.03 0.02 0.03 0.04 0.05 0.05 0.04 0.04 0.04 0.04
0.14 0.16 0.16 0.20 0.22 0.14 0.13 0.14 0.12 0.09 0.09 0.11 0.14 0.10 0.11 0.13 0.12 0.11 0.11 0.11 0.11 0.10 0.09 0.07 0.06 0.05 0.04 0.03 0.03 0.03 0.03 0.03 0.04 0.03 0.02 0.02 0.02 0.03 0.03 0.03 0.03 0.03 0.04
0.06 0.07 0.08 0.09 0.11 0.10 0.09 0.09 0.09 0.09 0.09 0.09 0.08 0.08 0.09 0.09 0.08 0.09 0.09 0.09 0.11 0.10 0.06 0.05 0.05 0.05 0.04 0.03 0.02 0.02 0.03 0.03 0.03 0.03 0.03 0.03 0.03 0.03 0.02 0.03 0.03 0.02 0.02
0.06 0.06 0.06 0.06 0.05 0.05 0.05 0.05 0.06 0.07 0.06 0.06 0.05 0.04 0.06 0.05 0.05 0.07 0.07 0.06 0.05 0.05 0.05 0.05 0.04 0.04 0.03 0.04 0.04 0.04 0.04 0.03 0.03 0.02 0.03 0.04 0.04 0.04 0.04 0.03 0.02 0.02 0.02
0.03 0.03 0.03 0.03 0.02 0.02 0.02 0.02 0.02 0.03 0.03 0.03 0.04 0.03 0.03 0.05 0.05 0.04 0.04 0.04 0.04 0.03 0.04 0.05 0.03 0.03 0.03 0.04 0.05 0.06 0.05 0.04 0.03 0.03 0.03 0.04 0.03 0.03 0.03 0.04 0.04 0.04 0.03
0.04 0.03 0.03 0.03 0.02 0.02 0.02 0.01 0.02 0.02 0.02 0.03 0.03 0.03 0.03 0.04 0.06 0.06 0.04 0.04 0.03 0.03 0.03 0.04 0.04 0.04 0.04 0.06 0.07 0.07 0.07 0.06 0.05 0.04 0.04 0.03 0.02 0.03 0.03 0.03 0.02 0.02 0.02
0.08 0.07 0.06 0.05 0.05 0.05 0.04 0.03 0.05 0.06 0.08 0.10 0.11 0.10 0.07 0.07 0.07 0.07 0.05 0.04 0.03 0.02 0.03 0.04 0.04 0.04 0.06 0.08 0.08 0.08 0.09 0.09 0.08 0.07 0.05 0.04 0.03 0.03 0.02 0.02 0.02 0.02 0.02
0.08 0.09 0.09 0.08 0.07 0.08 0.06 0.05 0.06 0.09 0.18 0.17 0.12 0.11 0.09 0.06 0.05 0.06 0.05 0.04 0.02 0.02 0.02 0.03 0.05 0.05 0.06 0.07 0.07 0.06 0.07 0.09 0.11 0.11 0.07 0.05 0.04 0.03 0.03 0.02 0.02 0.02 0.01
0.09 0.07 0.08 0.09 0.07 0.07 0.07 0.08 0.09 0.09 0.13 0.13 0.08 0.05 0.05 0.05 0.05 0.06 0.06 0.05 0.04 0.04 0.03 0.04 0.05 0.07 0.06 0.06 0.07 0.06 0.05 0.06 0.09 0.13 0.13 0.09 0.07 0.05 0.03 0.02 0.02 0.01 0.01
0.14 0.07 0.05 0.04 0.03 0.03 0.03 0.03 0.04 0.04 0.04 0.05 0.05 0.05 0.05 0.05 0.05 0.05 0.05 0.04 0.04 0.03 0.03 0.03 0.04 0.06 0.06 0.07 0.08 0.09 0.09 0.10 0.09 0.10 0.12 0.11 0.08 0.06 0.04 0.03 0.03 0.02 0.02
0.17 0.10 0.07 0.05 0.04 0.04 0.03 0.03 0.03 0.03 0.04 0.05 0.05 0.04 0.04 0.03 0.04 0.04 0.03 0.03 0.03 0.04 0.04 0.04 0.04 0.05 0.06 0.08 0.12 0.15 0.15 0.14 0.12 0.10 0.09 0.09 0.09 0.07 0.05 0.04 0.04 0.03 0.02
0.17 0.15 0.12 0.12 0.12 0.09 0.07 0.06 0.04 0.04 0.05 0.05 0.04 0.04 0.03 0.03 0.03 0.04 0.04 0.03 0.03 0.03 0.04 0.05 0.05 0.05 0.07 0.08 0.12 0.14 0.15 0.15 0.13 0.11 0.11 0.10 0.10 0.09 0.07 0.05 0.04 0.03 0.04
0.07 0.08 0.09 0.08 0.09 0.07 0.07 0.07 0.06 0.05 0.05 0.05 0.04 0.04 0.04 0.03 0.04 0.04 0.03 0.02 0.03 0.02 0.02 0.03 0.03 0.05 0.05 0.05 0.07 0.12 0.13 0.11 0.10 0.10 0.11 0.11 0.12 0.13 0.10 0.07 0.06 0.05 0.04
0.06 0.06 0.06 0.04 0.03 0.03 0.04 0.05 0.08 0.09 0.10 0.09 0.07 0.05 0.04 0.05 0.05 0.04 0.03 0.03 0.03 0.03 0.02 0.02 0.03 0.03 0.03 0.04 0.05 0.07 0.09 0.10 0.08 0.07 0.08 0.08 0.08 0.08 0.07 0.07 0.07 0.07 0.06
0.06 0.03 0.02 0.02 0.02 0.02 0.04 0.04 0.04 0.06 0.09 0.10 0.10 0.07 0.05 0.05 0.05 0.03 0.02 0.03 0.03 0.03 0.03 0.03 0.03 0.03 0.04 0.04 0.04 0.05 0.07 0.08 0.08 0.08 0.08 0.07 0.07 0.07 0.06 0.06 0.06 0.07 0.06
0.06 0.04 0.02 0.02 0.03 0.07 0.06 0.04 0.03 0.03 0.05 0.08 0.09 0.07 0.05 0.05 0.04 0.04 0.04 0.04 0.03 0.03 0.03 0.04 0.05 0.05 0.04 0.04 0.03 0.03 0.04 0.05 0.06 0.07 0.07 0.07 0.07 0.07 0.07 0.06 0.07 0.08 0.07
0.05 0.04 0.03 0.03 0.03 0.05 0.09 0.11 0.10 0.06 0.04 0.05 0.06 0.06 0.06 0.07 0.06 0.07 0.06 0.05 0.04 0.05 0.05 0.04 0.04 0.03 0.04 0.04 0.03 0.03 0.03 0.03 0.03 0.04 0.05 0.05 0.07 0.07 0.07 0.07 0.07 0.07 0.08
0.06 0.05 0.05 0.03 0.02 0.03 0.05 0.06 0.09 0.10 0.07 0.05 0.04 0.04 0.05 0.05 0.04 0.04 0.04 0.04 0.05 0.05 0.05 0.04 0.03 0.02 0.03 0.03 0.03 0.03 0.03 0.04 0.04 0.04 0.03 0.03 0.04 0.05 0.06 0.06 0.07 0.09 0.08
0.06 0.06 0.05 0.03 0.02 0.02 0.03 0.04 0.04 0.04 0.04 0.04 0.03 0.02 0.03 0.03 0.03 0.02 0.02 0.01 0.01 0.01 0.02 0.02 0.02 0.02 0.03 0.03 0.03 0.04 0.05 0.06 0.07 0.07 0.07 0.07 0.08 0.09 0.09 0.09 0.10 0.09 0.07
0.09 0.07 0.05 0.04 0.03 0.02 0.02 0.02 0.03 0.03 0.03 0.03 0.03 0.02 0.01 0.02 0.01 0.01 0.01 0.01 0.01 0.02 0.03 0.02 0.02 0.03 0.03 0.02 0.02 0.03 0.04 0.04 0.05 0.06 0.07 0.09 0.12 0.11 0.09 0.08 0.07 0.07 0.05
0.11 0.07 0.05 0.04 0.03 0.03 0.03 0.03 0.03 0.03 0.03 0.03 0.03 0.03 0.03 0.02 0.02 0.01 0.01 0.01 0.02 0.02 0.02 0.03 0.04 0.04 0.04 0.03 0.02 0.02 0.02 0.02 0.03 0.04 0.05 0.06 0.05 0.04 0.04 0.04 0.05 0.05 0.05
0.06 0.05 0.05 0.04 0.03 0.02 0.02 0.02 0.02 0.02 0.02 0.02 0.03 0.02 0.03 0.04 0.03 0.03 0.03 0.03 0.03 0.02 0.02 0.02 0.03 0.03 0.03 0.03 0.02 0.02 0.02 0.02 0.02 0.02 0.02 0.02 0.02 0.02 0.02 0.03 0.04 0.05 0.05
0.03 0.03 0.04 0.04 0.03 0.03 0.02 0.02 0.02 0.02 0.01 0.02 0.03 0.04 0.04 0.04 0.04 0.04 0.04 0.03 0.02 0.02 0.02 0.03 0.02 0.02 0.01 0.01 0.02 0.02 0.03 0.03 0.03 0.02 0.02 0.02 0.02 0.02 0.02 0.03 0.03 0.05 0.05
0.02 0.02 0.02 0.03 0.03 0.03 0.03 0.03 0.03 0.03 0.02 0.02 0.02 0.04 0.05 0.05 0.04 0.03 0.03 0.03 0.02 0.01 0.01 0.02 0.02 0.02 0.01 0.01 0.01 0.01 0.02 0.03 0.03 0.03 0.02 0.02 0.02 0.03 0.04 0.03 0.03 0.04 0.04
MSLP
1007.22 1007.84 1008.52 1009.18 1009.76 1010.22 1010.55 1010.76 1010.90 1011.00 1011.09 1011.21 1011.36 1011.52 1011.68 1011.82 1011.92 1011.96 1011.97 1011.96 1011.97 1012.01 1012.11 1012.28 1012.50 1012.76 1013.04 1013.29 1013.50 1013.64 1013.71 1013.70 1013.63 1013.49 1013.31 1013.09 1012.84 1012.58 1012.31 1012.04 1011.79 1011.58 1011.42
1006.84 1007.41 1008.04 1008.66 1009.22 1009.68 1010.03 1010.28 1010.46 1010.61 1010.74 1010.89 1011.06 1011.24 1011.41 1011.55 1011.64 1011.69 1011.69 1011.68 1011.67 1011.68 1011.75 1011.88 1012.06 1012.27 1012.50 1012.73 1012.91 1013.05 1013.12 1013.14 1013.09 1012.99 1012.85 1012.67 1012.45 1012.21 1011.96 1011.69 1011.43 1011.19 1010.99
1006.63 1007.15 1007.73 1008.29 1008.81 1009.24 1009.58 1009.85 1010.05 1010.23 1010.40 1010.59 1010.79 1010.98 1011.16 1011.30 1011.40 1011.44 1011.44 1011.41 1011.38 1011.38 1011.42 1011.51 1011.64 1011.80 1011.99 1012.16 1012.31 1012.42 1012.48 1012.50 1012.46 1012.39 1012.28 1012.13 1011.96 1011.75 1011.52 1011.27 1011.01 1010.76 1010.53
1006.55 1007.03 1007.54 1008.04 1008.49 1008.87 1009.19 1009.44 1009.66 1009.86 1010.07 1010.28 1010.51 1010.72 1010.91 1011.05 1011.14 1011.18 1011.16 1011.12 1011.08 1011.05 1011.06 1011.11 1011.19 1011.31 1011.43 1011.55 1011.65 1011.72 1011.75 1011.74 1011.70 1011.63 1011.54 1011.42 1011.28 1011.11 1010.92 1010.70 1010.47 1010.22 1009.97
1006.56 1006.99 1007.43 1007.85 1008.22 1008.54 1008.80 1009.04 1009.26 1009.48 1009.71 1009.95 1010.20 1010.43 1010.62 1010.76 1010.84 1010.86 1010.83 1010.77 1010.70 1010.65 1010.62 1010.63 1010.67 1010.73 1010.80 1010.86 1010.89 1010.90 1010.88 1010.83 1010.76 1010.68 1010.58 1010.48 1010.37 1010.24 1010.09 1009.92 1009.72 1009.50 1009.27
1006.61 1006.98 1007.34 1007.67 1007.96 1008.20 1008.42 1008.62 1008.83 1009.06 1009.31 1009.57 1009.83 1010.08 1010.27 1010.40 1010.46 1010.46 1010.40 1010.32 1010.22 1010.14 1010.08 1010.05 1010.04 1010.05 1010.06 1010.05 1010.02 1009.96 1009.87 1009.76 1009.65 1009.53 1009.42 1009.31 1009.22 1009.12 1009.02 1008.89 1008.74 1008.57 1008.38
1006.66 1006.97 1007.25 1007.49 1007.69 1007.85 1008.01 1008.17 1008.36 1008.59 1008.85 1009.12 1009.40 1009.63 1009.82 1009.93 1009.97 1009.94 1009.86 1009.74 1009.62 1009.51 1009.42 1009.36 1009.31 1009.27 1009.23 1009.16 1009.06 1008.92 1008.76 1008.57 1008.39 1008.21 1008.06 1007.94 1007.84 1007.77 1007.70 1007.63 1007.54 1007.44 1007.31
1006.69 1006.95 1007.15 1007.30 1007.41 1007.50 1007.59 1007.72 1007.88 1008.10 1008.35 1008.62 1008.88 1009.11 1009.27 1009.36 1009.37 1009.31 1009.19 1009.05 1008.91 1008.77 1008.67 1008.58 1008.51 1008.44 1008.34 1008.22 1008.04 1007.83 1007.58 1007.31 1007.04 1006.79 1006.58 1006.42 1006.30 1006.23 1006.18 1006.16 1006.15 1006.12 1006.09
1006.72 1006.91 1007.04 1007.12 1007.15 1007.18 1007.22 1007.30 1007.43 1007.62 1007.85 1008.09 1008.32 1008.51 1008.64 1008.69 1008.66 1008.57 1008.44 1008.28 1008.13 1007.99 1007.88 1007.79 1007.70 1007.60 1007.47 1007.29 1007.05 1006.75 1006.41 1006.04 1005.68 1005.34 1005.04 1004.81 1004.65 1004.56 1004.53 1004.55 1004.60 1004.67 1004.74
1006.75 1006.89 1006.96 1006.98 1006.96 1006.93 1006.93 1006.97 1007.06 1007.21 1007.39 1007.58 1007.76 1007.90 1007.97 1007.97 1007.91 1007.79 1007.64 1007.48 1007.33 1007.21 1007.11 1007.02 1006.93 1006.82 1006.65 1006.42 1006.11 1005.73 1005.29 1004.81 1004.34 1003.88 1003.49 1003.17 1002.95 1002.82 1002.79 1002.84 1002.95 1003.11 1003.29
1006.79 1006.89 1006.93 1006.91 1006.86 1006.80 1006.76 1006.76 1006.81 1006.90 1007.02 1007.14 1007.25 1007.31 1007.31 1007.25 1007.15 1007.01 1006.85 1006.70 1006.57 1006.47 1006.39 1006.32 1006.24 1006.11 1005.92 1005.63 1005.25 1004.78 1004.23 1003.64 1003.03 1002.45 1001.93 1001.51 1001.21 1001.03 1000.98 1001.04 1001.21 1001.46 1001.76
1006.83 1006.91 1006.94 1006.91 1006.85 1006.78 1006.73 1006.70 1006.70 1006.73 1006.77 1006.81 1006.82 1006.78 1006.71 1006.59 1006.43 1006.27 1006.11 1005.97 1005.87 1005.80 1005.75 1005.71 1005.63 1005.49 1005.26 1004.92 1004.46 1003.88 1003.22 1002.49 1001.75 1001.03 1000.38 999.84 999.44 999.20 999.12 999.19 999.40 999.73 1000.16
1006.84 1006.93 1006.96 1006.95 1006.92 1006.86 1006.81 1006.76 1006.72 1006.68 1006.64 1006.58 1006.48 1006.35 1006.19 1006.00 1005.80 1005.61 1005.44 1005.32 1005.25 1005.21 1005.19 1005.15 1005.07 1004.91 1004.63 1004.22 1003.67 1002.99 1002.20 1001.34 1000.45 999.59 998.81 998.15 997.65 997.34 997.22 997.29 997.55 997.96 998.50
1006.78 1006.89 1006.96 1006.99 1006.99 1006.97 1006.93 1006.88 1006.81 1006.71 1006.59 1006.43 1006.24 1006.01 1005.75 1005.49 1005.25 1005.03 1004.86 1004.75 1004.69 1004.66 1004.65 1004.61 1004.51 1004.31 1003.97 1003.48 1002.83 1002.04 1001.13 1000.14 999.12 998.13 997.23 996.46 995.88 995.50 995.35 995.42 995.71 996.20 996.84
1006.62 1006.75 1006.86 1006.94 1007.00 1007.02 1007.02 1006.97 1006.88 1006.75 1006.56 1006.32 1006.04 1005.72 1005.39 1005.07 1004.77 1004.53 1004.34 1004.22 1004.16 1004.13 1004.11 1004.04 1003.90 1003.64 1003.24 1002.66 1001.92 1001.02 1000.00 998.90 997.78 996.68 995.68 994.84 994.18 993.76 993.59 993.67 994.00 994.55 995.29
1006.32 1006.47 1006.62 1006.75 1006.86 1006.94 1006.97 1006.95 1006.86 1006.71 1006.48 1006.18 1005.84 1005.45 1005.06 1004.69 1004.35 1004.07 1003.87 1003.73 1003.64 1003.58 1003.52 1003.41 1003.20 1002.88 1002.39 1001.74 1000.91 999.93 998.84 997.66 996.47 995.32 994.28 993.39 992.71 992.27 992.10 992.20 992.57 993.18 994.00
1005.88 1006.03 1006.21 1006.38 1006.54 1006.67 1006.75 1006.75 1006.68 1006.52 1006.28 1005.96 1005.57 1005.15 1004.72 1004.31 1003.95 1003.64 1003.40 1003.23 1003.11 1003.00 1002.88 1002.70 1002.42 1002.02 1001.47 1000.74 999.86 998.84 997.71 996.52 995.32 994.17 993.13 992.26 991.59 991.18 991.03 991.17 991.58 992.24 993.11
1005.31 1005.46 1005.64 1005.83 1006.03 1006.20 1006.31 1006.35 1006.31 1006.16 1005.93 1005.60 1005.21 1004.79 1004.35 1003.92 1003.54 1003.21 1002.94 1002.73 1002.56 1002.39 1002.20 1001.94 1001.60 1001.13 1000.52 999.76 998.85 997.83 996.73 995.57 994.43 993.34 992.37 991.57 990.97 990.62 990.53 990.71 991.16 991.85 992.76
1004.66 1004.77 1004.94 1005.14 1005.35 1005.54 1005.68 1005.76 1005.74 1005.63 1005.42 1005.12 1004.75 1004.34 1003.92 1003.50 1003.12 1002.78 1002.48 1002.23 1002.00 1001.77 1001.51 1001.19 1000.78 1000.26 999.62 998.86 997.98 997.01 995.98 994.92 993.89 992.93 992.09 991.40 990.92 990.66 990.65 990.89 991.37 992.09 993.01
1003.97 1004.04 1004.17 1004.36 1004.56 1004.76 1004.92 1005.01 1005.02 1004.94 1004.77 1004.52 1004.19 1003.82 1003.43 1003.05 1002.68 1002.34 1002.03 1001.75 1001.48 1001.20 1000.88 1000.51 1000.05 999.51 998.87 998.13 997.31 996.44 995.53 994.63 993.76 992.97 992.29 991.77 991.43 991.29 991.37 991.67 992.19 992.90 993.80
1003.26 1003.28 1003.38 1003.54 1003.72 1003.91 1004.06 1004.17 1004.21 1004.16 1004.03 1003.83 1003.56 1003.24 1002.91 1002.57 1002.23 1001.91 1001.61 1001.32 1001.02 1000.71 1000.35 999.94 999.47 998.93 998.32 997.64 996.92 996.17 995.42 994.69 994.01 993.42 992.93 992.59 992.40 992.39 992.56 992.92 993.46 994.16 995.01
1002.55 1002.54 1002.59 1002.71 1002.87 1003.04 1003.19 1003.29 1003.34 1003.32 1003.23 1003.08 1002.87 1002.62 1002.35 1002.06 1001.78 1001.50 1001.22 1000.94 1000.65 1000.32 999.96 999.55 999.09 998.58 998.01 997.42 996.81 996.19 995.60 995.05 994.57 994.17 993.88 993.71 993.67 993.78 994.04 994.44 994.99 995.67 996.45
1001.82 1001.78 1001.81 1001.90 1002.03 1002.17 1002.30 1002.40 1002.46 1002.46 1002.40 1002.29 1002.14 1001.95 1001.75 1001.54 1001.32 1001.10 1000.87 1000.63 1000.36 1000.06 999.72 999.34 998.91 998.45 997.96 997.45 996.95 996.47 996.03 995.65 995.34 995.11 994.98 994.96 995.05 995.26 995.58 996.01 996.55 997.19 997.90
1001.03 1000.97 1000.99 1001.07 1001.18 1001.30 1001.41 1001.50 1001.56 1001.57 1001.54 1001.47 1001.37 1001.25 1001.11 1000.98 1000.83 1000.68 1000.52 1000.35 1000.14 999.89 999.61 999.28 998.91 998.52 998.10 997.69 997.29 996.93 996.61 996.36 996.19 996.09 996.09 996.18 996.36 996.63 996.99 997.43 997.95 998.53 999.17
1000.11 1000.07 1000.09 1000.17 1000.27 1000.39 1000.49 1000.58 1000.63 1000.65 1000.64 1000.60 1000.55 1000.49 1000.42 1000.36 1000.30 1000.24 1000.17 1000.07 999.95 999.78 999.58 999.33 999.04 998.72 998.39 998.07 997.76 997.49 997.27 997.11 997.03 997.03 997.10 997.26 997.49 997.80 998.17 998.60 999.09 999.62 1000.17
999.03 999.02 999.07 999.17 999.28 999.40 999.51 999.60 999.65 999.68 999.69 999.69 999.67 999.67 999.67 999.68 999.71 999.73 999.76 999.76 999.74 999.68 999.58 999.42 999.23 999.01 998.77 998.52 998.29 998.09 997.94 997.85 997.82 997.87 997.98 998.17 998.42 998.73 999.10 999.51 999.95 1000.42 1000.91
Thickness
5791 5788 5785 5781 5779 5777 5774 5772 5771 5769 5768 5766 5765 5763 5762 5761 5759 5757 5754 5752 5749 5747 5745 5743 5741 5740 5738 5736 5734 5731 5728 5725 5718 5717 5719 5719 5718 5716 5714 5713 5712 5711 5709
5789 5784 5780 5778 5776 5773 5770 5769 5768 5766 5764 5763 5761 5760 5759 5757 5756 5754 5751 5750 5747 5744 5742 5740 5738 5738 5735 5733 5730 5728 5726 5724 5719 5713 5712 5713 5712 5711 5709 5708 5707 5706 5704
5786 5780 5776 5773 5770 5768 5767 5766 5764 5762 5760 5759 5758 5756 5754 5753 5752 5750 5748 5747 5744 5742 5739 5737 5735 5734 5732 5729 5727 5725 5723 5722 5717 5712 5708 5707 5706 5705 5703 5702 5701 5700 5700
5782 5777 5772 5770 5767 5765 5764 5762 5760 5759 5757 5755 5753 5752 5750 5749 5748 5746 5745 5742 5740 5738 5736 5735 5733 5731 5729 5726 5725 5722 5719 5715 5712 5707 5704 5702 5700 5700 5697 5695 5693 5693 5693
5777 5773 5770 5768 5766 5762 5759 5757 5756 5755 5752 5750 5747 5746 5745 5745 5743 5741 5740 5738 5735 5733 5732 5731 5730 5729 5727 5725 5722 5719 5715 5710 5706 5702 5699 5696 5694 5692 5691 5690 5687 5686 5686
5772 5769 5767 5764 5761 5757 5755 5753 5751 5750 5748 5745 5743 5741 5740 5740 5739 5737 5735 5732 5730 5728 5727 5726 5726 5724 5723 5721 5719 5717 5714 5708 5703 5699 5695 5692 5690 5689 5688 5686 5682 5678 5676
5769 5766 5762 5759 5756 5753 5752 5748 5746 5745 5743 5740 5738 5736 5734 5734 5734 5732 5730 5728 5725 5724 5722 5721 5721 5720 5718 5715 5713 5712 5709 5707 5704 5700 5694 5692 5689 5687 5684 5680 5677 5675 5673
5763 5760 5758 5755 5752 5749 5746 5743 5741 5740 5738 5735 5733 5731 5729 5729 5728 5727 5725 5722 5720 5718 5717 5716 5714 5713 5713 5710 5707 5704 5702 5701 5700 5698 5695 5692 5690 5687 5682 5678 5675 5671 5670
5757 5756 5755 5752 5749 5744 5741 5739 5737 5734 5732 5731 5729 5726 5723 5723 5722 5721 5719 5715 5713 5712 5712 5711 5709 5708 5708 5705 5701 5698 5696 5695 5695 5693 5691 5688 5686 5683 5678 5672 5668 5664 5660
5753 5752 5751 5748 5745 5741 5738 5736 5733 5730 5728 5725 5723 5721 5719 5718 5718 5716 5713 5710 5707 5707 5706 5705 5704 5703 5702 5699 5696 5693 5689 5688 5687 5685 5683 5681 5679 5676 5673 5669 5665 5659 5655
5749 5748 5746 5744 5741 5738 5735 5732 5728 5724 5721 5718 5716 5715 5714 5713 5713 5711 5709 5705 5703 5701 5699 5699 5698 5697 5695 5693 5691 5688 5686 5684 5680 5678 5676 5673 5671 5668 5666 5664 5660 5656 5652
5743 5742 5739 5737 5736 5734 5730 5726 5723 5719 5715 5712 5709 5708 5708 5707 5707 5705 5704 5702 5700 5696 5694 5693 5692 5691 5689 5687 5685 5683 5681 5677 5674 5671 5668 5665 5664 5662 5661 5658 5656 5653 5651
5735 5734 5731 5729 5727 5726 5723 5719 5716 5713 5709 5706 5703 5701 5701 5701 5700 5699 5698 5696 5694 5691 5689 5688 5686 5684 5682 5680 5679 5677 5674 5671 5667 5664 5662 5660 5659 5657 5655 5652 5650 5647 5645
5728 5726 5725 5722 5720 5718 5715 5713 5709 5706 5703 5701 5699 5696 5694 5693 5692 5692 5690 5688 5687 5684 5682 5680 5679 5677 5675 5674 5672 5670 5667 5665 5662 5659 5657 5655 5653 5651 5647 5645 5642 5639 5635
5721 5719 5718 5716 5714 5711 5708 5706 5704 5703 5701 5697 5695 5693 5689 5686 5686 5685 5682 5680 5678 5676 5673 5672 5670 5667 5665 5665 5664 5662 5661 5659 5656 5654 5651 5649 5646 5643 5641 5638 5634 5631 5627
5714 5712 5710 5709 5706 5704 5701 5698 5698 5697 5697 5695 5692 5689 5686 5683 5681 5678 5675 5673 5671 5668 5665 5663 5661 5659 5658 5657 5656 5654 5653 5651 5650 5648 5645 5642 5639 5637 5634 5631 5628 5625 5621
5708 5705 5704 5702 5700 5696 5694 5692 5689 5688 5688 5686 5684 5682 5679 5677 5674 5671 5668 5666 5663 5660 5657 5655 5654 5653 5651 5650 5649 5647 5645 5644 5643 5640 5638 5635 5633 5630 5627 5624 5621 5617 5614
5702 5700 5698 5695 5693 5691 5688 5686 5683 5680 5677 5675 5675 5674 5672 5669 5667 5664 5661 5658 5655 5652 5650 5648 5647 5646 5645 5643 5642 5640 5638 5636 5634 5632 5630 5628 5626 5623 5620 5616 5613 5610 5607
5695 5693 5691 5689 5687 5684 5682 5679 5676 5675 5671 5668 5666 5664 5664 5662 5659 5656 5654 5651 5649 5646 5645 5643 5642 5640 5639 5637 5636 5634 5631 5629 5627 5625 5623 5621 5619 5615 5612 5609 5606 5603 5600
5689 5688 5685 5682 5679 5676 5674 5671 5669 5667 5664 5662 5659 5657 5655 5653 5650 5647 5646 5645 5642 5641 5639 5638 5636 5635 5633 5631 5629 5627 5625 5622 5620 5618 5616 5613 5611 5608 5605 5602 5599 5596 5593
5681 5680 5678 5675 5671 5668 5666 5664 5662 5660 5657 5655 5654 5653 5651 5648 5645 5642 5640 5638 5636 5634 5633 5631 5630 5628 5626 5623 5621 5619 5616 5614 5612 5610 5607 5605 5603 5600 5598 5594 5592 5589 5586
5672 5671 5668 5666 5664 5661 5659 5658 5656 5653 5651 5649 5647 5645 5643 5641 5638 5636 5634 5632 5630 5629 5627 5625 5622 5621 5619 5616 5613 5611 5608 5605 5603 5601 5599 5598 5595 5593 5590 5587 5584 5582 5579
5664 5662 5661 5659 5657 5654 5652 5650 5648 5646 5643 5642 5640 5638 5635 5633 5631 5630 5628 5627 5625 5623 5621 5618 5615 5613 5611 5609 5607 5604 5601 5598 5596 5594 5591 5589 5587 5585 5583 5580 5578 5575 5573
5656 5654 5652 5650 5648 5646 5644 5643 5641 5640 5638 5635 5633 5631 5629 5627 5625 5624 5622 5621 5618 5616 5614 5611 5608 5605 5603 5600 5599 5597 5594 5591 5589 5586 5584 5582 5579 5577 5575 5573 5571 5569 5567
5647 5645 5644 5642 5640 5638 5637 5636 5634 5633 5632 5630 5627 5625 5623 5622 5620 5618 5616 5614 5612 5609 5606 5603 5600 5598 5595 5593 5591 5588 5586 5583 5581 5578 5576 5574 5571 5569 5568 5566 5564 5562 5560
5639 5637 5635 5634 5632 5631 5629 5628 5627 5626 5624 5623 5622 5620 5618 5616 5614 5612 5610 5607 5605 5601 5598 5596 5593 5591 5588 5585 5583 5581 5578 5576 5574 5571 5569 5566 5564 5562 5560 5559 5557 5555 5554